Location: NJAA Observatory
(40.6819°N, 74.8979°W)
Time: 13:19:14
(UTC-04:00)

Iridium 4 - Visible Passes

Search period start: 29 May 2016 00:00
Search period end: 08 June 2016 00:00
Orbit: 773 x 776 km, 86.4° (Epoch: 29 May)

Date Brightness Start Highest point End Pass type
(mag) Time Alt. Az. Time Alt. Az. Time Alt. Az.
29 May 6.2 03:43:08 10° N 03:48:14 53° E 03:53:18 10° SSE visible
30 May 7.3 03:09:13 10° NNE 03:13:42 28° E 03:18:08 10° SE visible
30 May 6.4 04:49:45 10° NNW 04:54:19 32° W 04:58:51 10° SW visible
31 May 8.0 02:35:57 10° NE 02:39:01 16° ENE 02:42:04 10° ESE visible
31 May 5.6 04:14:58 10° N 04:20:06 60° W 04:25:12 10° SSW visible
01 Jun 5.7 03:40:33 10° N 03:45:46 73° E 03:50:55 10° S visible
02 Jun 6.7 03:06:26 10° NNE 03:11:17 38° E 03:16:07 10° SSE visible
02 Jun 6.8 04:47:38 10° NNW 04:51:41 23° W 04:55:43 10° SW visible
03 Jun 7.7 02:32:46 10° NNE 02:36:41 21° ENE 02:40:34 10° SE visible
03 Jun 6.0 04:12:37 10° NNW 04:17:31 43° W 04:21:55 13° SSW visible
04 Jun 8.2 02:00:26 10° NE 02:01:56 11° ENE 02:03:24 10° E visible
04 Jun 5.5 03:38:01 10° N 03:43:15 82° W 03:47:16 17° S visible
05 Jun 6.2 03:03:45 10° N 03:08:51 53° E 03:12:38 18° SSE visible
05 Jun 7.2 04:45:42 10° NW 04:49:00 17° W 04:52:19 10° WSW visible
06 Jun 7.2 02:29:50 10° NNE 02:34:19 28° E 02:38:01 13° SE visible
06 Jun 6.4 04:10:22 10° NNW 04:14:55 32° W 04:18:25 15° SW visible
07 Jun 7.9 01:56:35 10° NE 01:59:38 15° ENE 02:02:40 10° ESE visible
07 Jun 5.6 03:35:35 10° N 03:40:43 60° W 03:43:50 23° SSW visible
